This is the latest recevied weather packets stored in our database for station/object WA6ODQ-13. If no packets are shown the sender has not sent any weather packets the latest 1 day(s).
| Time | Temp. | Humidity | Pressure | Rain* | Wind** | Luminosity | Snow |
|---|---|---|---|---|---|---|---|
| 1778035704 | 16.11° C | 78% | 1014 hPa | 0 mm | 1.34 m/s, 217° | 6 W/m² | - |
| 1778035401 | 16.67° C | 79% | 1013.6 hPa | 0 mm | 1.34 m/s, 166° | 9 W/m² | - |
| 1778035097 | 16.67° C | 78% | 1013.8 hPa | 0 mm | 0.89 m/s, 189° | 11 W/m² | - |
| 1778034794 | 16.67° C | 78% | 1013.9 hPa | 0 mm | 1.79 m/s, 187° | 14 W/m² | - |
| 1778034491 | 16.67° C | 78% | 1013.7 hPa | 0 mm | 0.45 m/s, 158° | 18 W/m² | - |
| 1778034189 | 16.67° C | 78% | 1013.7 hPa | 0 mm | 1.34 m/s, 184° | 26 W/m² | - |
| 1778033887 | 16.67° C | 78% | 1013.4 hPa | 0 mm | 1.79 m/s, 204° | 30 W/m² | - |
| 1778033583 | 16.67° C | 78% | 1013.3 hPa | 0 mm | 1.34 m/s, 231° | 37 W/m² | - |
| 1778033280 | 16.67° C | 77% | 1013.3 hPa | 0 mm | 1.34 m/s, 218° | 45 W/m² | - |
| 1778032978 | 17.22° C | 77% | 1013.4 hPa | 0 mm | 1.34 m/s, 212° | 46 W/m² | - |
| 1778032675 | 17.22° C | 76% | 1013.6 hPa | 0 mm | 1.34 m/s, 178° | 53 W/m² | - |
| 1778032374 | 17.22° C | 76% | 1013.7 hPa | 0 mm | 2.24 m/s, 172° | 52 W/m² | - |
| 1778032069 | 17.22° C | 76% | 1013.4 hPa | 0 mm | 1.34 m/s, 181° | 57 W/m² | - |
| 1778031766 | 17.22° C | 76% | 1013.5 hPa | 0 mm | 1.79 m/s, 190° | 63 W/m² | - |
| 1778031463 | 17.78° C | 76% | 1013.4 hPa | 0 mm | 1.34 m/s, 204° | 63 W/m² | - |
| 1778031160 | 17.78° C | 76% | 1013.4 hPa | 0 mm | 1.34 m/s, 307° | 66 W/m² | - |
| 1778030856 | 17.78° C | 75% | 1013.4 hPa | 0 mm | 2.24 m/s, 173° | 69 W/m² | - |
| 1778030553 | 17.78° C | 74% | 1013.4 hPa | 0 mm | 2.24 m/s, 155° | 69 W/m² | - |
| 1778030251 | 17.78° C | 74% | 1013.3 hPa | 0 mm | 1.34 m/s, 168° | 83 W/m² | - |
| 1778029947 | 18.33° C | 74% | 1013.3 hPa | 0 mm | 2.68 m/s, 172° | 94 W/m² | - |
| 1778029645 | 18.33° C | 74% | 1013.1 hPa | 0 mm | 1.79 m/s, 198° | 116 W/m² | - |
| 1778029342 | 18.33° C | 74% | 1013.2 hPa | 0 mm | 1.34 m/s, 177° | 105 W/m² | - |
| 1778029040 | 18.33° C | 73% | 1013.2 hPa | 0 mm | 1.34 m/s, 239° | 123 W/m² | - |
| 1778028736 | 18.33° C | 73% | 1013.2 hPa | 0 mm | 0.45 m/s, 136° | 135 W/m² | - |
| 1778028432 | 18.33° C | 72% | 1013.2 hPa | 0 mm | 1.34 m/s, 183° | 160 W/m² | - |
* Rain latest hour (hover to see other rain measurements)
** Current wind speed in m/s (hover to see current wind gust speed)